Flag for U.S.A. Weather past 2 weeks in Paradise, Nevada, U.S.A.

Now
62 °F

More clouds than sun.


Feels Like: 62 °F
Forecast: 56 / 72 °F
Wind: 18 mph from South

Location: McCarran International Airport

Current Time: Apr 25, 2015 at 9:18:24 AM

Latest Report: Apr 25, 2015 at 8:56 AM


Visibility: 10 mi

Pressure: 29.69 "Hg

Humidity: 34%

Dew point: 33 °F

Location of ParadiseLocation

Historic Weather in Paradise — Graph

°F

Paradise temperature yesterday

Maximum temperature yesterday: 77 °F (at 2:56 PM)
Minimum temperature yesterday: 59 °F (at 5:56 AM)
Average temperature yesterday: 68 °F

Past Weeks' High & Low Weather Summary

 TemperatureHumidityPressure
High89 °F (Apr 13, 3:56 PM)49% (Apr 24, 5:56 AM)30.13 "Hg (Apr 24, 5:56 AM)
Low49 °F (Apr 15, 5:56 AM)3% (Apr 21, 4:56 PM)29.59 "Hg (Apr 20, 5:56 PM)
Average71 °F16%29.80 "Hg
* Reported Apr 10 7:56 AM — Apr 25 7:56 AM, Paradise, Weather by CustomWeather, © 2015

Note: Actual official high and low records may vary slightly from our data, if they occured in-between our weather recording intervals... More about our weather records

Advertising

Paradise weather history for previous 24 hours

 ConditionsComfort  
Time TempWeatherWind HumidityBarometerVisibility
7:56 AM
Sat, Apr 25
59 °FBroken clouds.14 mph39%29.70 "Hg10 mi
6:56 AM59 °FBroken clouds.13 mph42%29.69 "Hg10 mi
5:56 AM59 °FPartly cloudy.14 mph42%29.69 "Hg10 mi
4:56 AM59 °FPassing clouds.15 mph42%29.68 "Hg10 mi
3:56 AM60 °FPassing clouds.10 mph41%29.68 "Hg10 mi
2:56 AM60 °FPassing clouds.16 mph42%29.67 "Hg10 mi
1:56 AM61 °FPassing clouds.16 mph42%29.68 "Hg10 mi
12:56 AM63 °FPassing clouds.15 mph40%29.69 "Hg10 mi
11:56 PM
Fri, Apr 24
62 °FPassing clouds.17 mph41%29.68 "Hg10 mi
10:56 PM65 °FPartly cloudy.16 mph37%29.68 "Hg10 mi
9:56 PM66 °FPartly cloudy.17 mph36%29.69 "Hg10 mi
8:56 PM68 °FPartly cloudy.22 mph33%29.67 "Hg10 mi
7:56 PM70 °FBroken clouds.22 mph30%29.64 "Hg10 mi
6:56 PM73 °FBroken clouds.20 mph26%29.62 "Hg10 mi
5:56 PM76 °FBroken clouds.17 mph23%29.61 "Hg10 mi
3:56 PM76 °FScattered clouds.24 mph24%29.61 "Hg10 mi
2:56 PM77 °FScattered clouds.23 mph24%29.63 "Hg10 mi
1:56 PM76 °FScattered clouds.21 mph24%29.65 "Hg10 mi
12:56 PM75 °FScattered clouds.20 mph27%29.67 "Hg10 mi
11:56 AM74 °FScattered clouds.22 mph28%29.69 "Hg10 mi
10:56 AM72 °FScattered clouds.16 mph33%29.71 "Hg10 mi
9:56 AM69 °FScattered clouds.18 mph36%29.72 "Hg10 mi
Weather by CustomWeather, © 2015

See weather overviewHow to use our weather pages